| time (UTC) | temp C | wind direction | speed KPH | gust KPH | rain 1hr cm | rain 24hr cm | rain mn cm | humidity % | barometer mb |
| 20260507080039 | 6 | 29 | 4.8 | 8.0 | 0.00 | 0.00 | 0.00 | 56 | 1011.4 |
| 20260507074532 | 5 | 31 | 3.2 | 11.3 | 0.00 | 0.00 | 0.00 | 55 | 1011.6 |
| 20260507073029 | 6 | 307 | 0.0 | 1.6 | 0.00 | 0.00 | 0.00 | 53 | 1011.3 |
| 20260507071528 | 6 | 39 | 3.2 | 6.4 | 0.00 | 0.00 | 0.00 | 51 | 1011.2 |
| 20260507070022 | 7 | 63 | 3.2 | 4.8 | 0.00 | 0.00 | 0.00 | 49 | 1011.0 |
| 20260507064520 | 8 | 32 | 8.0 | 14.5 | 0.00 | 0.00 | 0.00 | 48 | 1011.1 |
| 20260507064517 | 8 | 33 | 8.0 | 14.5 | 0.00 | 0.00 | 0.00 | 48 | 1011.1 |
| 20260507063014 | 8 | 15 | 8.0 | 12.9 | 0.00 | 0.00 | 0.00 | 46 | 1011.0 |
| 20260507061509 | 10 | 29 | 9.7 | 22.5 | 0.00 | 0.00 | 0.00 | 44 | 1010.9 |
| 20260507054602 | 11 | 59 | 19.3 | 37.0 | 0.00 | 0.00 | 0.00 | 35 | 1011.0 |
| 20260507053058 | 13 | 46 | 19.3 | 27.4 | 0.00 | 0.00 | 0.00 | 34 | 1010.8 |
| 20260507051554 | 14 | 86 | 11.3 | 17.7 | 0.00 | 0.00 | 0.00 | 31 | 1009.8 |
| 20260507050051 | 13 | 79 | 1.6 | 8.0 | 0.00 | 0.00 | 0.00 | 37 | 1009.7 |
| 20260507044559 | 13 | 20 | 3.2 | 8.0 | 0.00 | 0.00 | 0.00 | 38 | 1009.7 |
| 20260507043053 | 13 | 28 | 4.8 | 8.0 | 0.00 | 0.00 | 0.00 | 38 | 1009.6 |
| 20260507041550 | 13 | 7 | 0.0 | 4.8 | 0.00 | 0.00 | 0.00 | 43 | 1009.6 |
| 20260507040046 | 15 | 229 | 0.0 | 3.2 | 0.00 | 0.00 | 0.00 | 41 | 1009.4 |
| 20260507034548 | 15 | 220 | 1.6 | 3.2 | 0.00 | 0.00 | 0.00 | 40 | 1009.4 |
| 20260507033046 | 16 | 219 | 3.2 | 9.7 | 0.00 | 0.00 | 0.00 | 39 | 1009.4 |
| 20260507031546 | 17 | 251 | 6.4 | 12.9 | 0.00 | 0.00 | 0.00 | 38 | 1009.4 |
| 20260507030042 | 17 | 241 | 6.4 | 16.1 | 0.00 | 0.00 | 0.00 | 35 | 1009.9 |
| 20260507024544 | 13 | 248 | 1.6 | 6.4 | 0.00 | 0.00 | 0.00 | 35 | 1009.9 |
| 20260507023040 | 15 | 301 | 1.6 | 3.2 | 0.00 | 0.00 | 0.00 | 34 | 1009.3 |
| 20260507021541 | 17 | 359 | 1.6 | 4.8 | 0.00 | 0.00 | 0.00 | 28 | 1008.9 |
| 20260507020045 | 17 | 4 | 1.6 | 3.2 | 0.00 | 0.00 | 0.00 | 28 | 1008.9 |
| 20260507014537 | 19 | 14 | 3.2 | 8.0 | 0.00 | 0.00 | 0.00 | 26 | 1008.9 |
| 20260507013036 | 20 | 13 | 3.2 | 8.0 | 0.00 | 0.00 | 0.00 | 24 | 1009.0 |
| 20260507011535 | 20 | 355 | 3.2 | 14.5 | 0.00 | 0.00 | 0.00 | 23 | 1009.1 |
| 20260507010032 | 21 | 348 | 6.4 | 17.7 | 0.00 | 0.00 | 0.00 | 22 | 1009.1 |
| 20260507004533 | 21 | 333 | 8.0 | 22.5 | 0.00 | 0.00 | 0.00 | 22 | 1009.2 |
| 20260507003032 | 21 | 29 | 16.1 | 25.7 | 0.00 | 0.00 | 0.00 | 22 | 1009.4 |
| 20260507001535 | 22 | 328 | 11.3 | 20.9 | 0.00 | 0.00 | 0.00 | 22 | 1009.4 |
| 20260507000025 | 21 | 12 | 9.7 | 22.5 | 0.00 | 0.00 | 0.00 | 22 | 1009.5 |
| 20260506234523 | 21 | 324 | 11.3 | 22.5 | 0.00 | 0.00 | 0.00 | 23 | 1009.6 |
| 20260506233022 | 21 | 317 | 9.7 | 22.5 | 0.00 | 0.00 | 0.00 | 22 | 1009.5 |
| 20260506231520 | 21 | 307 | 12.9 | 20.9 | 0.00 | 0.00 | 0.00 | 22 | 1009.6 |
| 20260506230017 | 22 | 300 | 8.0 | 17.7 | 0.00 | 0.00 | 0.00 | 23 | 1009.7 |
| 20260506224515 | 21 | 13 | 3.2 | 16.1 | 0.00 | 0.00 | 0.00 | 23 | 1009.8 |
| 20260506223011 | 21 | 343 | 4.8 | 9.7 | 0.00 | 0.00 | 0.00 | 23 | 1010.1 |
| 20260506221508 | 20 | 276 | 1.6 | 6.4 | 0.00 | 0.00 | 0.00 | 23 | 1010.5 |
| 20260506220004 | 20 | 304 | 6.4 | 19.3 | 0.00 | 0.00 | 0.00 | 23 | 1010.8 |
| 20260506214502 | 20 | 283 | 11.3 | 22.5 | 0.00 | 0.00 | 0.00 | 23 | 1011.0 |
| 20260506213059 | 20 | 17 | 12.9 | 20.9 | 0.00 | 0.00 | 0.00 | 23 | 1011.2 |
| 20260506211556 | 18 | 269 | 6.4 | 11.3 | 0.00 | 0.00 | 0.00 | 24 | 1011.4 |
| 20260506210053 | 18 | 293 | 4.8 | 12.9 | 0.00 | 0.00 | 0.00 | 24 | 1011.8 |
| 20260506204554 | 18 | 336 | 6.4 | 14.5 | 0.00 | 0.00 | 0.00 | 23 | 1012.0 |
| 20260506203051 | 18 | 319 | 6.4 | 12.9 | 0.00 | 0.00 | 0.00 | 25 | 1012.3 |
| 20260506201543 | 17 | 248 | 3.2 | 12.9 | 0.00 | 0.00 | 0.00 | 25 | 1012.4 |
| 20260506200038 | 17 | 300 | 4.8 | 19.3 | 0.00 | 0.00 | 0.00 | 25 | 1012.7 |
| 20260506194539 | 17 | 242 | 6.4 | 16.1 | 0.00 | 0.00 | 0.00 | 24 | 1013.0 |
| 20260506193034 | 16 | 283 | 4.8 | 17.7 | 0.00 | 0.00 | 0.00 | 25 | 1013.2 |
| 20260506191534 | 16 | 238 | 6.4 | 17.7 | 0.00 | 0.00 | 0.00 | 26 | 1013.4 |
| 20260506190023 | 15 | 224 | 8.0 | 19.3 | 0.00 | 0.00 | 0.00 | 26 | 1013.6 |
| 20260506184526 | 15 | 181 | 8.0 | 19.3 | 0.00 | 0.00 | 0.00 | 28 | 1014.0 |
| 20260506183017 | 14 | 238 | 9.7 | 16.1 | 0.00 | 0.00 | 0.00 | 27 | 1014.3 |
| 20260506181513 | 13 | 245 | 11.3 | 19.3 | 0.00 | 0.00 | 0.00 | 28 | 1014.6 |
| 20260506180017 | 13 | 198 | 9.7 | 19.3 | 0.00 | 0.00 | 0.00 | 26 | 1014.9 |
| 20260506174506 | 13 | 243 | 8.0 | 20.9 | 0.00 | 0.00 | 0.00 | 26 | 1015.1 |
| 20260506173002 | 12 | 139 | 4.8 | 20.9 | 0.00 | 0.00 | 0.00 | 25 | 1015.4 |
| 20260506171604 | 12 | 240 | 8.0 | 20.9 | 0.00 | 0.00 | 0.00 | 29 | 1015.6 |
| 20260506170059 | 11 | 223 | 9.7 | 17.7 | 0.00 | 0.00 | 0.00 | 29 | 1016.0 |
| 20260506164557 | 11 | 230 | 6.4 | 16.1 | 0.00 | 0.00 | 0.00 | 34 | 1016.2 |
| 20260506163048 | 10 | 186 | 6.4 | 16.1 | 0.00 | 0.00 | 0.00 | 36 | 1016.3 |
| 20260506161542 | 9 | 162 | 4.8 | 12.9 | 0.00 | 0.00 | 0.00 | 39 | 1016.6 |
| 20260506160041 | 9 | 160 | 8.0 | 12.9 | 0.00 | 0.00 | 0.00 | 40 | 1016.7 |
| 20260506154532 | 8 | 198 | 6.4 | 11.3 | 0.00 | 0.00 | 0.00 | 43 | 1017.1 |
| 20260506153027 | 7 | 217 | 6.4 | 12.9 | 0.00 | 0.00 | 0.00 | 46 | 1017.4 |
| 20260506151531 | 6 | 213 | 4.8 | 11.3 | 0.00 | 0.00 | 0.00 | 46 | 1017.6 |
| 20260506150022 | 6 | 240 | 6.4 | 11.3 | 0.00 | 0.00 | 0.00 | 48 | 1017.7 |
| 20260506144515 | 5 | 261 | 1.6 | 9.7 | 0.00 | 0.00 | 0.00 | 48 | 1017.8 |
| 20260506143017 | 5 | 188 | 1.6 | 6.4 | 0.00 | 0.00 | 0.00 | 47 | 1018.0 |
| 20260506141509 | 4 | 154 | 0.0 | 4.8 | 0.00 | 0.00 | 0.00 | 47 | 1018.2 |
| 20260506140008 | 3 | 172 | 0.0 | 3.2 | 0.00 | 0.00 | 0.00 | 47 | 1018.3 |
| 20260506134501 | 2 | 339 | 0.0 | 0.0 | 0.00 | 0.00 | 0.00 | 55 | 1018.4 |
| 20260506133103 | 0 | 338 | 0.0 | 0.0 | 0.00 | 0.00 | 0.00 | 59 | 1018.4 |
| 20260506131552 | -2 | 346 | 0.0 | 0.0 | 0.00 | 0.00 | 0.00 | 64 | 1018.3 |
| 20260506130050 | -3 | 346 | 0.0 | 1.6 | 0.00 | 0.00 | 0.00 | 65 | 1018.5 |
| 20260506124542 | -4 | 350 | 0.0 | 1.6 | 0.00 | 0.00 | 0.00 | 68 | 1018.7 |
| 20260506123040 | -6 | 350 | 0.0 | 1.6 | 0.00 | 0.00 | 0.00 | 70 | 1018.7 |
| 20260506121542 | -6 | 2 | 0.0 | 4.8 | 0.00 | 0.00 | 0.00 | 72 | 1018.8 |
| 20260506120039 | -7 | 320 | 0.0 | 0.0 | 0.00 | 0.00 | 0.00 | 74 | 1018.9 |
| 20260506114534 | -7 | 323 | 0.0 | 0.0 | 0.00 | 0.00 | 0.00 | 73 | 1019.0 |
| 20260506113042 | -7 | 324 | 0.0 | 0.0 | 0.00 | 0.00 | 0.00 | 74 | 1019.1 |
| 20260506111531 | -7 | 300 | 0.0 | 0.0 | 0.00 | 0.00 | 0.00 | 71 | 1019.4 |
| 20260506110034 | -7 | 286 | 0.0 | 0.0 | 0.00 | 0.00 | 0.00 | 73 | 1019.5 |
| 20260506104525 | -7 | 294 | 0.0 | 0.0 | 0.00 | 0.00 | 0.00 | 72 | 1019.6 |
| 20260506103030 | -7 | 294 | 0.0 | 0.0 | 0.00 | 0.00 | 0.00 | 72 | 1019.7 |
| 20260506101533 | -7 | 294 | 0.0 | 0.0 | 0.00 | 0.00 | 0.00 | 71 | 1019.8 |
| 20260506100030 | -7 | 294 | 0.0 | 1.6 | 0.00 | 0.00 | 0.00 | 71 | 1020.1 |
| 20260506094519 | -7 | 300 | 0.0 | 1.6 | 0.00 | 0.00 | 0.00 | 71 | 1020.2 |
| 20260506093018 | -7 | 300 | 0.0 | 3.2 | 0.00 | 0.00 | 0.00 | 71 | 1020.3 |
| 20260506091518 | -7 | 293 | 0.0 | 0.0 | 0.00 | 0.00 | 0.00 | 71 | 1020.3 |
| 20260506090012 | -7 | 293 | 0.0 | 0.0 | 0.00 | 0.00 | 0.00 | 68 | 1020.4 |
| 20260506084510 | -6 | 293 | 0.0 | 3.2 | 0.00 | 0.00 | 0.00 | 68 | 1020.5 |
| 20260506083009 | -6 | 277 | 0.0 | 0.0 | 0.00 | 0.00 | 0.00 | 68 | 1020.6 |
| 20260506081502 | -6 | 295 | 0.0 | 0.0 | 0.00 | 0.00 | 0.00 | 69 | 1020.7 |